TimeCDT,TemperatureF,Dew PointF,Humidity,Sea Level PressureIn,VisibilityMPH,Wind Direction,Wind SpeedMPH,Gust SpeedMPH,PrecipitationIn,Events,Conditions,WindDirDegrees,DateUTC
12:12 AM,69.8,62.6,78,29.91,10.0,South,8.1,-,N/A,,Clear,190,2012-09-04 05:12:00
12:53 AM,77.0,51.8,41,29.91,10.0,SW,13.8,24.2,N/A,,Clear,230,2012-09-04 05:53:00
1:12 AM,77.0,50.0,39,29.89,10.0,WSW,12.7,-,N/A,Thunderstorm,Scattered Clouds,240,2012-09-04 06:12:00
1:32 AM,80.6,44.6,28,29.82,10.0,SSE,18.4,23.0,N/A,Rain,Light Rain,150,2012-09-04 06:32:00
1:52 AM,77.0,48.2,36,29.84,10.0,South,4.6,10.4,N/A,,Clear,170,2012-09-04 06:52:00
2:12 AM,73.4,51.8,47,29.84,10.0,South,5.8,-,N/A,,Clear,190,2012-09-04 07:12:00
2:33 AM,71.6,51.8,50,29.83,10.0,South,5.8,-,N/A,,Clear,180,2012-09-04 07:33:00
2:52 AM,69.8,51.8,53,29.83,10.0,South,6.9,-,N/A,,Clear,190,2012-09-04 07:52:00
3:12 AM,69.8,51.8,53,29.84,10.0,South,5.8,-,N/A,,Clear,180,2012-09-04 08:12:00
3:33 AM,69.8,51.8,53,29.85,10.0,South,6.9,-,N/A,,Clear,190,2012-09-04 08:33:00
3:52 AM,68.0,53.6,60,29.85,10.0,South,6.9,-,N/A,,Clear,190,2012-09-04 08:52:00
4:12 AM,68.0,55.4,64,29.85,10.0,South,3.5,-,N/A,,Clear,190,2012-09-04 09:12:00
4:33 AM,66.2,55.4,68,29.85,10.0,South,4.6,-,N/A,,Clear,170,2012-09-04 09:33:00
4:52 AM,68.0,57.2,68,29.84,10.0,South,3.5,-,N/A,,Clear,190,2012-09-04 09:52:00
5:12 AM,68.0,57.2,68,29.84,10.0,South,4.6,-,N/A,,Clear,190,2012-09-04 10:12:00
5:33 AM,66.2,57.2,73,29.84,10.0,South,3.5,-,N/A,,Clear,190,2012-09-04 10:33:00
5:52 AM,64.4,57.2,77,29.85,10.0,West,3.5,-,N/A,,Clear,270,2012-09-04 10:52:00
6:12 AM,62.6,57.2,82,29.85,10.0,West,3.5,-,N/A,,Clear,280,2012-09-04 11:12:00
6:33 AM,62.6,57.2,82,29.86,10.0,Calm,Calm,-,N/A,,Clear,0,2012-09-04 11:33:00
6:52 AM,62.6,57.2,82,29.86,10.0,SW,5.8,-,N/A,,Clear,230,2012-09-04 11:52:00
7:12 AM,64.4,57.2,77,29.86,10.0,Calm,Calm,-,N/A,,Clear,0,2012-09-04 12:12:00
7:33 AM,64.4,57.2,77,29.87,10.0,Calm,Calm,-,N/A,,Clear,0,2012-09-04 12:33:00
7:52 AM,64.4,59.0,83,29.87,10.0,Calm,Calm,-,N/A,,Clear,0,2012-09-04 12:52:00
8:12 AM,69.8,60.8,73,29.88,10.0,SW,3.5,-,N/A,,Clear,230,2012-09-04 13:12:00
8:33 AM,71.6,60.8,69,29.88,10.0,WSW,5.8,-,N/A,,Clear,250,2012-09-04 13:33:00
8:52 AM,73.4,60.8,65,29.87,10.0,SW,6.9,-,N/A,,Clear,230,2012-09-04 13:52:00
9:12 AM,75.2,62.6,65,29.87,10.0,SSW,6.9,-,N/A,,Clear,210,2012-09-04 14:12:00
9:32 AM,77.0,62.6,61,29.87,10.0,SSW,9.2,-,N/A,,Clear,210,2012-09-04 14:32:00
9:52 AM,78.8,64.4,61,29.88,10.0,SW,8.1,-,N/A,,Clear,220,2012-09-04 14:52:00
10:13 AM,80.6,64.4,58,29.87,10.0,SW,8.1,-,N/A,,Clear,230,2012-09-04 15:13:00
10:32 AM,80.6,64.4,58,29.88,10.0,WSW,8.1,-,N/A,,Clear,240,2012-09-04 15:32:00
10:52 AM,82.4,64.4,54,29.88,10.0,WSW,6.9,-,N/A,,Clear,250,2012-09-04 15:52:00
11:32 AM,84.2,62.6,48,29.87,10.0,West,8.1,-,N/A,,Clear,260,2012-09-04 16:32:00
11:53 AM,86.0,62.6,45,29.87,10.0,West,5.8,-,N/A,,Clear,260,2012-09-04 16:53:00
12:12 PM,86.0,53.6,33,29.87,10.0,WNW,5.8,-,N/A,,Clear,290,2012-09-04 17:12:00
12:32 PM,87.8,46.4,24,29.86,10.0,NW,5.8,-,N/A,,Clear,310,2012-09-04 17:32:00
12:53 PM,87.8,50.0,27,29.85,10.0,NNW,5.8,-,N/A,,Clear,340,2012-09-04 17:53:00
1:12 PM,87.8,48.2,25,29.85,10.0,Calm,Calm,-,N/A,,Clear,0,2012-09-04 18:12:00
1:32 PM,89.6,46.4,22,29.84,10.0,SW,3.5,-,N/A,,Clear,220,2012-09-04 18:32:00
1:53 PM,89.6,44.6,21,29.84,10.0,NNW,8.1,-,N/A,,Clear,330,2012-09-04 18:53:00
2:12 PM,89.6,46.4,22,29.83,10.0,NNE,5.8,-,N/A,,Clear,30,2012-09-04 19:12:00
2:32 PM,91.4,44.6,20,29.83,10.0,NW,4.6,-,N/A,,Clear,310,2012-09-04 19:32:00
3:12 PM,91.4,41.0,17,29.82,10.0,South,3.5,-,N/A,,Clear,170,2012-09-04 20:12:00
3:32 PM,91.4,44.6,20,29.81,10.0,Calm,Calm,-,N/A,,Clear,0,2012-09-04 20:32:00
3:53 PM,91.4,42.8,18,29.81,10.0,North,6.9,-,N/A,,Clear,360,2012-09-04 20:53:00
4:12 PM,91.4,42.8,18,29.81,10.0,East,4.6,-,N/A,,Clear,90,2012-09-04 21:12:00
4:32 PM,91.4,42.8,18,29.81,10.0,ENE,3.5,-,N/A,,Clear,60,2012-09-04 21:32:00
4:52 PM,91.4,42.8,18,29.80,10.0,North,3.5,-,N/A,,Clear,10,2012-09-04 21:52:00
5:12 PM,91.4,42.8,18,29.80,10.0,ENE,6.9,-,N/A,,Clear,60,2012-09-04 22:12:00
5:33 PM,91.4,46.4,21,29.79,10.0,ENE,8.1,-,N/A,,Clear,70,2012-09-04 22:33:00
5:52 PM,89.6,46.4,22,29.79,10.0,NNE,6.9,-,N/A,,Clear,30,2012-09-04 22:52:00
6:12 PM,87.8,46.4,24,29.79,10.0,NE,6.9,-,N/A,,Clear,40,2012-09-04 23:12:00
6:33 PM,86.0,46.4,25,29.78,10.0,NE,5.8,-,N/A,,Clear,50,2012-09-04 23:33:00
6:52 PM,84.2,46.4,27,29.78,10.0,ENE,5.8,-,N/A,,Clear,60,2012-09-04 23:52:00
7:12 PM,-9999,-9999,N/A,29.78,10.0,ENE,5.8,-,N/A,,Clear,60,2012-09-05 00:12:00
7:32 PM,80.6,46.4,30,29.78,10.0,NE,4.6,-,N/A,,Clear,40,2012-09-05 00:32:00
7:52 PM,75.2,48.2,38,29.77,10.0,ENE,4.6,-,N/A,,Clear,70,2012-09-05 00:52:00
8:13 PM,71.6,50.0,46,29.76,10.0,NE,5.8,-,N/A,,Clear,40,2012-09-05 01:13:00
8:32 PM,69.8,50.0,49,29.75,7.0,NE,5.8,-,N/A,,Clear,50,2012-09-05 01:32:00
8:52 PM,75.2,46.4,36,29.73,10.0,ENE,9.2,-,N/A,,Clear,60,2012-09-05 01:52:00
9:12 PM,73.4,48.2,41,29.73,10.0,ENE,8.1,-,N/A,,Clear,70,2012-09-05 02:12:00
9:32 PM,75.2,48.2,38,29.74,10.0,ENE,8.1,-,N/A,,Clear,60,2012-09-05 02:32:00
9:53 PM,75.2,46.4,36,29.75,10.0,NE,6.9,-,N/A,Thunderstorm,Clear,50,2012-09-05 02:53:00
10:12 PM,75.2,46.4,36,29.75,10.0,East,6.9,-,N/A,Thunderstorm,Scattered Clouds,90,2012-09-05 03:12:00
10:53 PM,66.2,57.2,73,29.93,10.0,WNW,19.6,34.5,0.01,Rain-Thunderstorm,Light Thunderstorms and Rain,300,2012-09-05 03:53:00
11:12 PM,62.6,57.2,82,29.93,10.0,NW,27.6,34.5,0.02,Rain-Thunderstorm,Thunderstorms and Rain,320,2012-09-05 04:12:00
11:32 PM,64.4,55.4,73,29.85,10.0,North,19.6,28.8,0.02,Rain,Light Rain,10,2012-09-05 04:32:00
11:53 PM,64.4,55.4,73,-9999,10.0,NE,11.5,23.0,0.02,,Clear,50,2012-09-05 04:53:00